Time,TemperatureF,DewpointF,PressureIn,WindDirection,WindDirectionDegrees,WindSpeedMPH,WindSpeedGustMPH,Humidity,HourlyPrecipIn,Conditions,Clouds,dailyrainin,SoftwareType,DateUTC
2013-06-05 00:02:00,62.0,55.0,-100.00,SSW,197,1.0,2.0,77,-99.99,,,-99.99,,2013-06-05 07:02:00,
2013-06-05 00:12:00,62.0,55.0,-100.00,South,189,1.0,2.0,77,-99.99,,,-99.99,,2013-06-05 07:12:00,
2013-06-05 00:22:00,62.0,55.0,-100.00,SW,215,1.0,2.0,77,-99.99,,,-99.99,,2013-06-05 07:22:00,
2013-06-05 00:32:00,62.0,55.0,-100.00,SSW,211,0.0,2.0,77,-99.99,,,-99.99,,2013-06-05 07:32:00,
2013-06-05 00:42:00,62.0,55.0,-100.00,WSW,256,1.0,3.0,77,-99.99,,,-99.99,,2013-06-05 07:42:00,
2013-06-05 00:52:00,62.0,55.0,-100.00,West,259,1.0,2.0,77,-99.99,,,-99.99,,2013-06-05 07:52:00,
2013-06-05 01:02:00,62.0,55.0,-100.00,West,260,1.0,2.0,77,-99.99,,,-99.99,,2013-06-05 08:02:00,
2013-06-05 01:12:00,62.0,55.0,-100.00,SW,223,1.0,2.0,77,-99.99,,,-99.99,,2013-06-05 08:12:00,
2013-06-05 01:22:00,62.0,55.0,-100.00,SW,218,1.0,2.0,77,-99.99,,,-99.99,,2013-06-05 08:22:00,
2013-06-05 01:32:00,62.0,55.0,-100.00,SSW,204,1.0,2.0,77,-99.99,,,-99.99,,2013-06-05 08:32:00,
2013-06-05 01:42:00,62.0,55.0,-100.00,SSW,195,0.0,1.0,77,-99.99,,,-99.99,,2013-06-05 08:42:00,
2013-06-05 01:52:00,62.0,55.0,-100.00,WSW,252,1.0,1.0,77,-99.99,,,-99.99,,2013-06-05 08:52:00,
2013-06-05 02:02:00,62.0,55.0,-100.00,SW,214,1.0,2.0,77,-99.99,,,-99.99,,2013-06-05 09:02:00,
2013-06-05 02:12:00,62.0,55.0,-100.00,SSW,203,1.0,2.0,77,-99.99,,,-99.99,,2013-06-05 09:12:00,
2013-06-05 02:22:00,62.0,55.0,-100.00,SSW,211,1.0,2.0,77,-99.99,,,-99.99,,2013-06-05 09:22:00,
2013-06-05 02:32:00,62.0,55.0,-100.00,SSW,206,1.0,2.0,77,-99.99,,,-99.99,,2013-06-05 09:32:00,
2013-06-05 02:42:00,62.0,55.0,-100.00,South,191,1.0,2.0,77,-99.99,,,-99.99,,2013-06-05 09:42:00,
2013-06-05 02:52:00,62.0,55.0,-100.00,SSW,201,1.0,2.0,77,-99.99,,,-99.99,,2013-06-05 09:52:00,
2013-06-05 03:02:00,62.0,55.0,-100.00,South,188,1.0,2.0,77,-99.99,,,-99.99,,2013-06-05 10:02:00,
2013-06-05 03:12:00,62.0,55.0,-100.00,SW,230,1.0,2.0,77,-99.99,,,-99.99,,2013-06-05 10:12:00,
2013-06-05 03:22:00,62.0,54.0,-100.00,WSW,246,1.0,2.0,76,-99.99,,,-99.99,,2013-06-05 10:22:00,
2013-06-05 03:33:00,62.0,55.0,-100.00,West,269,1.0,5.0,77,-99.99,,,-99.99,,2013-06-05 10:33:00,
2013-06-05 03:42:00,62.0,55.0,-100.00,West,266,1.0,4.0,77,-99.99,,,-99.99,,2013-06-05 10:42:00,
2013-06-05 03:52:00,62.0,55.0,-100.00,West,277,1.0,3.0,77,-99.99,,,-99.99,,2013-06-05 10:52:00,
2013-06-05 04:02:00,62.0,55.0,-100.00,West,261,1.0,3.0,78,-99.99,,,-99.99,,2013-06-05 11:02:00,
2013-06-05 04:12:00,62.0,55.0,-100.00,WSW,253,2.0,4.0,78,-99.99,,,-99.99,,2013-06-05 11:12:00,
2013-06-05 04:21:00,62.0,55.0,-100.00,West,263,1.0,3.0,78,-99.99,,,-99.99,,2013-06-05 11:21:00,
2013-06-05 04:32:00,61.0,54.0,-100.00,NNW,327,1.0,4.0,78,-99.99,,,-99.99,,2013-06-05 11:32:00,
2013-06-05 04:42:00,61.0,54.0,-100.00,SSW,195,1.0,3.0,79,-99.99,,,-99.99,,2013-06-05 11:42:00,
2013-06-05 04:52:00,61.0,54.0,-100.00,SW,226,1.0,3.0,78,-99.99,,,-99.99,,2013-06-05 11:52:00,
2013-06-05 05:01:00,62.0,55.0,-100.00,WSW,255,1.0,3.0,78,-99.99,,,-99.99,,2013-06-05 12:01:00,
2013-06-05 05:12:00,61.0,54.0,-100.00,WSW,253,1.0,4.0,78,-99.99,,,-99.99,,2013-06-05 12:12:00,
2013-06-05 05:22:00,62.0,55.0,-100.00,WSW,257,1.0,2.0,78,-99.99,,,-99.99,,2013-06-05 12:22:00,
2013-06-05 05:32:00,62.0,55.0,-100.00,West,275,1.0,3.0,78,-99.99,,,-99.99,,2013-06-05 12:32:00,
2013-06-05 05:43:00,62.0,55.0,-100.00,West,273,1.0,2.0,77,-99.99,,,-99.99,,2013-06-05 12:43:00,
2013-06-05 05:52:00,62.0,55.0,-100.00,WSW,257,1.0,2.0,77,-99.99,,,-99.99,,2013-06-05 12:52:00,
2013-06-05 06:02:00,62.0,54.0,-100.00,West,271,1.0,3.0,76,-99.99,,,-99.99,,2013-06-05 13:02:00,
2013-06-05 06:12:00,62.0,54.0,-100.00,ENE,57,1.0,3.0,76,-99.99,,,-99.99,,2013-06-05 13:12:00,
2013-06-05 06:21:00,62.0,54.0,-100.00,North,352,1.0,1.0,76,-99.99,,,-99.99,,2013-06-05 13:21:00,
2013-06-05 06:32:00,62.0,54.0,-100.00,NE,38,1.0,3.0,76,-99.99,,,-99.99,,2013-06-05 13:32:00,
2013-06-05 06:42:00,62.0,54.0,-100.00,NE,41,1.0,3.0,75,-99.99,,,-99.99,,2013-06-05 13:42:00,
2013-06-05 06:52:00,62.0,54.0,-100.00,NNE,33,1.0,3.0,75,-99.99,,,-99.99,,2013-06-05 13:52:00,
2013-06-05 07:01:00,62.0,54.0,-100.00,ENE,76,1.0,2.0,76,-99.99,,,-99.99,,2013-06-05 14:01:00,
2013-06-05 07:12:00,62.0,54.0,-100.00,ENE,61,2.0,4.0,75,-99.99,,,-99.99,,2013-06-05 14:12:00,
2013-06-05 07:22:00,62.0,54.0,-100.00,ENE,65,1.0,5.0,75,-99.99,,,-99.99,,2013-06-05 14:22:00,
2013-06-05 07:32:00,62.0,54.0,-100.00,ENE,77,2.0,4.0,75,-99.99,,,-99.99,,2013-06-05 14:32:00,
2013-06-05 07:42:00,62.0,54.0,-100.00,East,83,2.0,4.0,75,-99.99,,,-99.99,,2013-06-05 14:42:00,
2013-06-05 07:52:00,62.0,54.0,-100.00,ESE,103,1.0,4.0,74,-99.99,,,-99.99,,2013-06-05 14:52:00,
2013-06-05 08:02:00,63.0,54.0,-100.00,East,94,0.0,1.0,73,-99.99,,,-99.99,,2013-06-05 15:02:00,
2013-06-05 08:12:00,63.0,54.0,-100.00,NE,55,1.0,4.0,73,-99.99,,,-99.99,,2013-06-05 15:12:00,
2013-06-05 08:22:00,63.0,54.0,-100.00,NNE,30,1.0,3.0,73,-99.99,,,-99.99,,2013-06-05 15:22:00,
2013-06-05 08:33:00,63.0,54.0,-100.00,NE,38,1.0,3.0,73,-99.99,,,-99.99,,2013-06-05 15:33:00,
2013-06-05 08:42:00,63.0,54.0,-100.00,SSE,153,1.0,4.0,73,-99.99,,,-99.99,,2013-06-05 15:42:00,
2013-06-05 08:53:00,63.0,54.0,-100.00,SSW,205,1.0,5.0,73,-99.99,,,-99.99,,2013-06-05 15:53:00,
2013-06-05 09:03:00,63.0,54.0,-100.00,SSW,202,1.0,3.0,72,-99.99,,,-99.99,,2013-06-05 16:03:00,
2013-06-05 09:12:00,63.0,54.0,-100.00,West,263,1.0,3.0,72,-99.99,,,-99.99,,2013-06-05 16:12:00,
2013-06-05 09:22:00,64.0,55.0,-100.00,SSE,162,1.0,4.0,72,-99.99,,,-99.99,,2013-06-05 16:22:00,
2013-06-05 09:32:00,64.0,54.0,-100.00,ENE,71,1.0,4.0,71,-99.99,,,-99.99,,2013-06-05 16:32:00,
2013-06-05 09:42:00,64.0,54.0,-100.00,SSW,213,1.0,4.0,71,-99.99,,,-99.99,,2013-06-05 16:42:00,
2013-06-05 09:53:00,64.0,54.0,-100.00,SW,221,1.0,5.0,71,-99.99,,,-99.99,,2013-06-05 16:53:00,
2013-06-05 10:02:00,65.0,55.0,-100.00,SE,144,1.0,3.0,70,-99.99,,,-99.99,,2013-06-05 17:02:00,
2013-06-05 10:12:00,65.0,55.0,-100.00,SW,235,2.0,6.0,69,-99.99,,,-99.99,,2013-06-05 17:12:00,
2013-06-05 10:22:00,65.0,55.0,-100.00,WSW,255,3.0,6.0,69,-99.99,,,-99.99,,2013-06-05 17:22:00,
2013-06-05 10:32:00,65.0,55.0,-100.00,WSW,248,3.0,7.0,70,-99.99,,,-99.99,,2013-06-05 17:32:00,
2013-06-05 10:42:00,66.0,55.0,-100.00,SW,222,1.0,4.0,68,-99.99,,,-99.99,,2013-06-05 17:42:00,
2013-06-05 10:52:00,67.0,55.0,-100.00,WNW,289,1.0,5.0,66,-99.99,,,-99.99,,2013-06-05 17:52:00,
2013-06-05 11:02:00,67.0,55.0,-100.00,WSW,247,4.0,8.0,65,-99.99,,,-99.99,,2013-06-05 18:02:00,
2013-06-05 11:12:00,67.0,55.0,-100.00,WSW,237,2.0,7.0,66,-99.99,,,-99.99,,2013-06-05 18:12:00,
2013-06-05 11:22:00,68.0,55.0,-100.00,SW,227,4.0,8.0,64,-99.99,,,-99.99,,2013-06-05 18:22:00,
2013-06-05 11:32:00,68.0,55.0,-100.00,SSW,195,2.0,7.0,64,-99.99,,,-99.99,,2013-06-05 18:32:00,
2013-06-05 11:42:00,70.0,55.0,-100.00,SW,214,3.0,8.0,60,-99.99,,,-99.99,,2013-06-05 18:42:00,
2013-06-05 11:52:00,70.0,55.0,-100.00,SW,214,3.0,8.0,60,-99.99,,,-99.99,,2013-06-05 18:52:00,
2013-06-05 12:02:00,70.0,55.0,-100.00,WSW,243,3.0,10.0,59,-99.99,,,-99.99,,2013-06-05 19:02:00,
2013-06-05 12:12:00,72.0,55.0,-100.00,SSW,195,2.0,6.0,56,-99.99,,,-99.99,,2013-06-05 19:12:00,
2013-06-05 12:22:00,72.0,55.0,-100.00,SSW,198,3.0,8.0,55,-99.99,,,-99.99,,2013-06-05 19:22:00,
2013-06-05 12:32:00,73.0,55.0,-100.00,SW,219,3.0,10.0,54,-99.99,,,-99.99,,2013-06-05 19:32:00,
2013-06-05 12:42:00,73.0,55.0,-100.00,WSW,237,5.0,12.0,54,-99.99,,,-99.99,,2013-06-05 19:42:00,
2013-06-05 12:52:00,74.0,55.0,-100.00,SSW,209,4.0,12.0,52,-99.99,,,-99.99,,2013-06-05 19:52:00,
2013-06-05 13:02:00,74.0,55.0,-100.00,SW,223,4.0,11.0,52,-99.99,,,-99.99,,2013-06-05 20:02:00,
2013-06-05 13:12:00,74.0,55.0,-100.00,SW,222,4.0,11.0,52,-99.99,,,-99.99,,2013-06-05 20:12:00,
2013-06-05 13:22:00,74.0,55.0,-100.00,WSW,242,6.0,11.0,51,-99.99,,,-99.99,,2013-06-05 20:22:00,
2013-06-05 13:32:00,74.0,55.0,-100.00,WSW,239,6.0,13.0,51,-99.99,,,-99.99,,2013-06-05 20:32:00,
2013-06-05 13:42:00,74.0,55.0,-100.00,SW,235,5.0,12.0,52,-99.99,,,-99.99,,2013-06-05 20:42:00,
2013-06-05 13:52:00,74.0,55.0,-100.00,WSW,243,5.0,13.0,51,-99.99,,,-99.99,,2013-06-05 20:52:00,
2013-06-05 14:02:00,75.0,55.0,-100.00,SSW,205,4.0,9.0,50,-99.99,,,-99.99,,2013-06-05 21:02:00,
2013-06-05 14:12:00,76.0,55.0,-100.00,SW,227,5.0,10.0,48,-99.99,,,-99.99,,2013-06-05 21:12:00,
2013-06-05 14:22:00,76.0,55.0,-100.00,SW,235,5.0,12.0,49,-99.99,,,-99.99,,2013-06-05 21:22:00,
2013-06-05 14:33:00,76.0,55.0,-100.00,WSW,243,5.0,12.0,48,-99.99,,,-99.99,,2013-06-05 21:33:00,
2013-06-05 14:43:00,76.0,55.0,-100.00,WSW,243,5.0,12.0,48,-99.99,,,-99.99,,2013-06-05 21:43:00,
2013-06-05 14:53:00,77.0,54.0,-100.00,WSW,243,5.0,14.0,45,-99.99,,,-99.99,,2013-06-05 21:53:00,
2013-06-05 15:02:00,78.0,55.0,-100.00,SW,231,4.0,13.0,45,-99.99,,,-99.99,,2013-06-05 22:02:00,
2013-06-05 15:12:00,78.0,54.0,-100.00,WSW,249,4.0,11.0,43,-99.99,,,-99.99,,2013-06-05 22:12:00,
2013-06-05 15:22:00,78.0,54.0,-100.00,WSW,247,5.0,10.0,44,-99.99,,,-99.99,,2013-06-05 22:22:00,
2013-06-05 15:32:00,77.0,55.0,-100.00,WSW,253,6.0,11.0,46,-99.99,,,-99.99,,2013-06-05 22:32:00,
2013-06-05 15:42:00,77.0,55.0,-100.00,WSW,238,6.0,11.0,46,-99.99,,,-99.99,,2013-06-05 22:42:00,
2013-06-05 15:52:00,77.0,55.0,-100.00,SW,228,6.0,13.0,46,-99.99,,,-99.99,,2013-06-05 22:52:00,
2013-06-05 16:02:00,76.0,55.0,-100.00,SW,215,5.0,10.0,48,-99.99,,,-99.99,,2013-06-05 23:02:00,
2013-06-05 16:12:00,74.0,54.0,-100.00,SSW,210,5.0,10.0,50,-99.99,,,-99.99,,2013-06-05 23:12:00,
2013-06-05 16:21:00,75.0,55.0,-100.00,SSW,202,3.0,8.0,49,-99.99,,,-99.99,,2013-06-05 23:21:00,
2013-06-05 16:32:00,76.0,54.0,-100.00,SW,221,4.0,10.0,47,-99.99,,,-99.99,,2013-06-05 23:32:00,
2013-06-05 16:42:00,75.0,55.0,-100.00,SW,214,4.0,10.0,49,-99.99,,,-99.99,,2013-06-05 23:42:00,
2013-06-05 16:52:00,75.0,55.0,-100.00,SW,214,4.0,10.0,49,-99.99,,,-99.99,,2013-06-05 23:52:00,
2013-06-05 17:02:00,75.0,55.0,-100.00,SW,229,4.0,9.0,50,-99.99,,,-99.99,,2013-06-06 00:02:00,
2013-06-05 17:12:00,75.0,55.0,-100.00,WSW,241,4.0,8.0,50,-99.99,,,-99.99,,2013-06-06 00:12:00,
2013-06-05 17:22:00,74.0,55.0,-100.00,SW,228,4.0,10.0,51,-99.99,,,-99.99,,2013-06-06 00:22:00,
2013-06-05 17:32:00,75.0,56.0,-100.00,SSW,205,4.0,9.0,51,-99.99,,,-99.99,,2013-06-06 00:32:00,
2013-06-05 17:42:00,74.0,55.0,-100.00,SSW,208,3.0,8.0,52,-99.99,,,-99.99,,2013-06-06 00:42:00,
2013-06-05 17:51:00,74.0,55.0,-100.00,SSW,208,3.0,8.0,52,-99.99,,,-99.99,,2013-06-06 00:51:00,
2013-06-05 18:02:00,73.0,55.0,-100.00,WSW,239,5.0,11.0,54,-99.99,,,-99.99,,2013-06-06 01:02:00,
2013-06-05 18:12:00,73.0,55.0,-100.00,WSW,239,5.0,10.0,54,-99.99,,,-99.99,,2013-06-06 01:12:00,
2013-06-05 18:21:00,72.0,55.0,-100.00,SW,232,3.0,8.0,55,-99.99,,,-99.99,,2013-06-06 01:21:00,
2013-06-05 18:32:00,73.0,55.0,-100.00,SW,223,3.0,8.0,54,-99.99,,,-99.99,,2013-06-06 01:32:00,
2013-06-05 18:42:00,72.0,55.0,-100.00,SW,235,4.0,8.0,56,-99.99,,,-99.99,,2013-06-06 01:42:00,
2013-06-05 18:52:00,72.0,55.0,-100.00,SW,235,4.0,8.0,56,-99.99,,,-99.99,,2013-06-06 01:52:00,
2013-06-05 19:01:00,71.0,54.0,-100.00,SW,214,4.0,7.0,56,-99.99,,,-99.99,,2013-06-06 02:01:00,
2013-06-05 19:12:00,71.0,55.0,-100.00,SW,228,3.0,6.0,57,-99.99,,,-99.99,,2013-06-06 02:12:00,
2013-06-05 19:22:00,71.0,55.0,-100.00,SW,234,3.0,7.0,58,-99.99,,,-99.99,,2013-06-06 02:22:00,
2013-06-05 19:32:00,70.0,55.0,-100.00,SW,229,3.0,5.0,60,-99.99,,,-99.99,,2013-06-06 02:32:00,
2013-06-05 19:42:00,70.0,55.0,-100.00,SW,229,3.0,5.0,60,-99.99,,,-99.99,,2013-06-06 02:42:00,
2013-06-05 19:51:00,70.0,55.0,-100.00,SW,229,3.0,5.0,60,-99.99,,,-99.99,,2013-06-06 02:51:00,
2013-06-05 20:02:00,67.0,55.0,-100.00,SSW,208,2.0,6.0,66,-99.99,,,-99.99,,2013-06-06 03:02:00,
2013-06-05 20:12:00,66.0,55.0,-100.00,SW,216,2.0,4.0,67,-99.99,,,-99.99,,2013-06-06 03:12:00,
2013-06-05 20:22:00,66.0,55.0,-100.00,SSW,205,1.0,4.0,68,-99.99,,,-99.99,,2013-06-06 03:22:00,
2013-06-05 20:33:00,65.0,55.0,-100.00,SSW,204,1.0,3.0,69,-99.99,,,-99.99,,2013-06-06 03:33:00,
2013-06-05 20:43:00,65.0,55.0,-100.00,South,175,0.0,1.0,69,-99.99,,,-99.99,,2013-06-06 03:43:00,
2013-06-05 20:52:00,64.0,54.0,-100.00,ENE,76,1.0,2.0,70,-99.99,,,-99.99,,2013-06-06 03:52:00,
2013-06-05 21:02:00,63.0,54.0,-100.00,SE,144,0.0,1.0,72,-99.99,,,-99.99,,2013-06-06 04:02:00,
2013-06-05 21:13:00,63.0,54.0,-100.00,SE,144,0.0,1.0,73,-99.99,,,-99.99,,2013-06-06 04:13:00,
2013-06-05 21:22:00,62.0,54.0,-100.00,SE,137,1.0,2.0,74,-99.99,,,-99.99,,2013-06-06 04:22:00,
2013-06-05 21:33:00,62.0,54.0,-100.00,SSE,147,0.0,1.0,74,-99.99,,,-99.99,,2013-06-06 04:33:00,
2013-06-05 21:42:00,61.0,53.0,-100.00,East,92,0.0,1.0,75,-99.99,,,-99.99,,2013-06-06 04:42:00,
2013-06-05 21:52:00,61.0,53.0,-100.00,East,92,0.0,1.0,75,-99.99,,,-99.99,,2013-06-06 04:52:00,
2013-06-05 22:02:00,61.0,54.0,-100.00,South,176,0.0,1.0,77,-99.99,,,-99.99,,2013-06-06 05:02:00,
2013-06-05 22:12:00,61.0,54.0,-100.00,SE,138,1.0,2.0,77,-99.99,,,-99.99,,2013-06-06 05:12:00,
2013-06-05 22:22:00,60.0,53.0,-100.00,SE,127,1.0,2.0,79,-99.99,,,-99.99,,2013-06-06 05:22:00,
2013-06-05 22:32:00,60.0,53.0,-100.00,ESE,102,0.0,1.0,79,-99.99,,,-99.99,,2013-06-06 05:32:00,
2013-06-05 22:42:00,59.0,53.0,-100.00,WSW,254,0.0,1.0,80,-99.99,,,-99.99,,2013-06-06 05:42:00,
2013-06-05 22:52:00,59.0,53.0,-100.00,West,260,1.0,1.0,80,-99.99,,,-99.99,,2013-06-06 05:52:00,
2013-06-05 23:02:00,59.0,53.0,-100.00,WSW,258,0.0,1.0,81,-99.99,,,-99.99,,2013-06-06 06:02:00,
2013-06-05 23:12:00,58.0,52.0,-100.00,West,265,0.0,1.0,81,-99.99,,,-99.99,,2013-06-06 06:12:00,
2013-06-05 23:22:00,58.0,52.0,-100.00,NE,39,0.0,1.0,81,-99.99,,,-99.99,,2013-06-06 06:22:00,
2013-06-05 23:32:00,58.0,52.0,-100.00,ENE,75,0.0,1.0,80,-99.99,,,-99.99,,2013-06-06 06:32:00,
2013-06-05 23:42:00,57.0,51.0,-100.00,ESE,113,0.0,2.0,79,-99.99,,,-99.99,,2013-06-06 06:42:00,
2013-06-05 23:52:00,57.0,51.0,-100.00,ENE,66,1.0,3.0,81,-99.99,,,-99.99,,2013-06-06 06:52:00,